User: anonymous
Location: Unspecified
(0.0000°N, 0.0000°E)
Time: 05:19:58
(UTC+02:00)
Language:

NOAA 12 - Orbit

View from above orbital plane
View from above orbital plane
View from above satellite
View from above satellite

Ground track
Ground track

The orbit data is extracted from the following two-line orbital elements,

1 21263U 91032A   14113.48613821  .00000133  00000-0  74643-4 0  2451
2 21263 098.6677 140.9513 0014209 041.9276 093.8809 14.25652211192768
Epoch (UTC): 23 April 2014 11:40:02
Eccentricity: 0.0014209
inclination: 98.6677°
perigee height: 796 km
apogee height: 816 km
right ascension of ascending node: 140.9513°
argument of perigee: 41.9276°
revolutions per day: 14.25652211
mean anomaly at epoch: 93.8809°
orbit number at epoch: 19276

The dashed part of the orbit path shows where the satellite is in the earth's shadow,  

DLR